Weather History for London-Corbin, KY

Change the Weather History Date:

Monday, November 18, 2013

  Actual Average Record
Temperature  
Mean Temperature 52 °F 47 °F  
Max Temperature 61 °F 58 °F 76 °F (1958)
Min Temperature 42 °F 36 °F 13 °F (1959)
Degree Days  
Heating Degree Days 13 18  
Month to date heating degree days 290 279  
Since 1 July heating degree days 534 585  
Cooling Degree Days 0 0  
Month to date cooling degree days 0 0  
Year to date cooling degree days 1083 1188  
Growing Degree Days 2 (Base 50)    
Moisture  
Dew Point 37 °F    
Average Humidity 66    
Maximum Humidity 93    
Minimum Humidity 38    
Precipitation  
Precipitation 0.00 in 0.14 in 2.28 in (1957)
Month to date precipitation 1.29 2.14  
Year to date precipitation 48.49 41.21  
Sea Level Pressure  
Sea Level Pressure 30.05 in    
Wind  
Wind Speed 7 mph (WNW)    
Max Wind Speed 17 mph    
Max Gust Speed 21 mph    
Visibility 10 miles    
Events      
T = Trace of Precipitation, MM = Missing Value Source: NWS Daily Summary

Daily Weather History Graph

Daily Weather History Graph

Search for Another Location

Airport:

Trip Planner

Search our weather history database for the weather conditions in past years. The results will help you decide how hot, cold, wet, or windy it might be!

Date:

Astronomy

Nov. 18, 2013 Rise Set
Actual Time 7:18 AM EST 5:24 PM EST
Civil Twilight 6:50 AM EST 5:52 PM EST
Nautical Twilight 6:18 AM EST 6:23 PM EST
Astronomical Twilight 5:48 AM EST 6:54 PM EST
Moon 6:26 PM EST (11/18) 8:05 AM EST (11/18)
Length of Visible Light 11h 01m
Length of Day
10h 05m
Full, 99% of the Moon is Illuminated
Nov 18
Full
Nov 25
Last Quarter
Dec 2
New
Dec 9
First Quarter
Dec 17
Full

Hourly Weather History & Observations

Time (EST) Temp. Windchill Dew Point Humidity Pressure Visibility Wind Dir Wind Speed Gust Speed Precip Events Conditions
12:53 AM 61.0 °F - 57.9 °F 90% 29.88 in 10.0 mi WNW 3.5 mph - N/A   Overcast
1:53 AM 59.0 °F - 55.9 °F 90% 29.88 in 10.0 mi WSW 4.6 mph - N/A   Scattered Clouds
2:53 AM 55.9 °F - 48.9 °F 77% 29.91 in 10.0 mi West 5.8 mph - N/A   Clear
3:53 AM 53.1 °F - 46.0 °F 77% 29.94 in 10.0 mi West 5.8 mph - N/A   Clear
4:53 AM 46.9 °F - 44.1 °F 90% 29.98 in 10.0 mi WNW 3.5 mph - N/A   Clear
5:53 AM 46.0 °F 43.9 °F 42.1 °F 86% 29.99 in 10.0 mi NW 4.6 mph - N/A   Clear
6:53 AM 43.0 °F - 39.9 °F 89% 30.00 in 10.0 mi Calm Calm - N/A   Clear
7:53 AM 43.0 °F 41.3 °F 39.9 °F 89% 30.01 in 10.0 mi WNW 3.5 mph - N/A   Clear
8:53 AM 50.0 °F - 39.9 °F 68% 30.02 in 10.0 mi NW 8.1 mph - N/A   Clear
9:53 AM 52.0 °F - 39.9 °F 63% 30.05 in 10.0 mi NW 5.8 mph - N/A   Clear
10:53 AM 54.0 °F - 37.9 °F 55% 30.06 in 10.0 mi WNW 10.4 mph - N/A   Clear
11:53 AM 55.0 °F - 37.0 °F 51% 30.06 in 10.0 mi WNW 5.8 mph - N/A   Clear
12:53 PM 57.0 °F - 36.0 °F 45% 30.05 in 10.0 mi West 12.7 mph - N/A   Clear
1:53 PM 57.9 °F - 35.1 °F 42% 30.04 in 10.0 mi WNW 13.8 mph - N/A   Clear
2:53 PM 57.0 °F - 34.0 °F 42% 30.05 in 10.0 mi WNW 9.2 mph - N/A   Partly Cloudy
3:53 PM 57.9 °F - 34.0 °F 41% 30.06 in 10.0 mi NW 11.5 mph - N/A   Overcast
4:53 PM 55.0 °F - 30.9 °F 40% 30.09 in 10.0 mi NW 12.7 mph - N/A   Partly Cloudy
5:53 PM 51.1 °F - 32.0 °F 48% 30.11 in 10.0 mi WNW 6.9 mph - N/A   Clear
6:53 PM 50.0 °F - 28.9 °F 44% 30.13 in 10.0 mi WNW 4.6 mph - N/A   Clear
7:53 PM 48.0 °F - 28.0 °F 46% 30.15 in 10.0 mi NW 4.6 mph - N/A   Clear
8:53 PM 46.9 °F - 28.0 °F 48% 30.16 in 10.0 mi NW 5.8 mph - N/A   Clear
9:53 PM 46.0 °F 41.9 °F 28.0 °F 50% 30.17 in 10.0 mi NNW 8.1 mph - N/A   Clear
10:53 PM 44.1 °F 40.8 °F 28.0 °F 53% 30.19 in 10.0 mi NNW 5.8 mph - N/A   Clear
11:53 PM 42.1 °F 39.2 °F 27.0 °F 55% 30.19 in 10.0 mi NW 4.6 mph - N/A   Clear